Location: Gro� Glienicke
(52.4675°N, 13.1079°E)
Time: 18:03:38
(UTC+00:00)

Cosmos 1821 Rocket - Pass Details

Date: 06 July 2020
Orbit: 946 x 1004 km, 82.9° (Epoch: 12 August)

Event Time Altitude Azimuth Distance (km) Brightness Sun altitude
Exits shadow 23:30:55 21° 178° (S) 1,980 5.0 -14.9°
Maximum altitude 23:35:06 75° 97° (E) 987 4.0 -14.8°
Drops below altitude 10° 23:41:12 10° 13° (NNE) 2,680 7.7 -14.7°
Sets 23:43:42 0° 12° (NNE) 3,629 8.9 -14.7°
